Regional Weather Roundup
Issued by NWS Bismarck, ND

Home | Current Version | Previous Version | Text Only | Print | Product List | Glossary On
Versions: 1 2 3 4 5 6 7 8 9 10 11 12 13 14 15 16 17 18 19 20 21 22 23 24 25 26 27 28 29 30 31 32 33 34 35 36 37 38 39 40 41 42 43 44 45 46 47 48 49 50
000
ASUS43 KBIS 291310
RWRBIS

NWR BROADCAST TEXT
NATIONAL WEATHER SERVICE BISMARCK ND
800 AM CDT FRI MAY 29 2015

NOTE: "FAIR" INDICATES FEW OR NO CLOUDS BELOW 12,000 FEET WITH NO
SIGNIFICANT WEATHER AND/OR OBSTRUCTIONS TO VISIBILITY.


CITY           SKY/WX    TMP DP  RH WIND       PRES   REMARKS
WILLISTON      CLOUDY    45  32  60 N13       30.28R
MINOT          CLOUDY    45  35  68 N18G24    30.21R
MINOT AFB      CLOUDY    46  42  84 N15G23    30.22R
BISMARCK       CLOUDY    49  43  80 N18       30.16R
DICKINSON      CLOUDY    44  36  73 N13       30.20R
GARRISON         N/A     47  37  68 N23       30.19R
HETTINGER ARPT CLOUDY    45  42  89 N21G29    30.19R
JAMESTOWN      CLOUDY    48  44  86 N28G35    30.07R
BEACH          CLOUDY    41  36  81 N15       30.27R
CARRINGTON     CLOUDY    46  46 100 N22       30.13R
CROSBY         CLOUDY    41  32  70 N13       30.30R
HARVEY         CLOUDY    46  39  76 N21       30.16R
HAZEN          CLOUDY    46  39  76 N15G21    30.21R
LINTON         CLOUDY    48  48 100 N22G32    30.10R
MANDAN         CLOUDY    46  45  93 N16       30.17R
OAKES            N/A     50  50 100 N28G35    30.02R
STANLEY        CLOUDY    43  36  75 N15G22    30.25R
WATFORD CITY   CLOUDY    43  32  65 N12       30.25R
$$

CITY           SKY/WX    TMP DP  RH WIND       PRES   REMARKS
GRAND FORKS    CLOUDY    45  40  82 N26G36    30.08R
GRAND FORKS AF CLOUDY    45  38  76 N25G39    30.09R
DEVILS LAKE    CLOUDY    46  34  61 N24G32    30.13R
FARGO          CLOUDY    50  45  83 N24G36    30.01R
CANDO          CLOUDY    45  39  81 N21G29    30.18R
GRAFTON        CLOUDY    43  41  93 N24G33    30.11R
LANGDON        CLOUDY    43  36  75 N21G29    30.14R
ROLLA          CLOUDY    41  37  87 N24       30.19R
WALHALLA         N/A     43  43 100 MISG      30.16R
$$

CITY           SKY/WX    TMP DP  RH WIND       PRES   REMARKS
ABERDEEN       LGT RAIN  55  53  93 N22G33    29.98R FOG
MOBRIDGE       CLOUDY    53  51  93 N23G33    30.05R
BUFFALO          N/A     46  43  89 N18       30.14R
RAPID CITY     LGT RAIN  50  49  96 N21G31    30.12R
GLASGOW        SUNNY     41  35  79 NE5       30.34R
SIDNEY         CLOUDY    45  30  57 N10       30.30R
WOLF POINT     SUNNY     41  35  79 N8        30.35R
GLENDIVE       MOSUNNY   41  34  75 N16       30.30R
MILES CITY     PTSUNNY   43  35  73 N9        30.30R
BAKER          CLOUDY    43  36  76 N15       30.25R
$$

CITY           SKY/WX    TMP DP  RH WIND       PRES   REMARKS
BILLINGS       CLOUDY    46  42  86 NE6       30.31R
GREAT FALLS    CLOUDY    46  44  93 E5        30.28S FOG
ESTEVAN        CLOUDY    43  32  65 N15       30.29R
$$




USA.gov is the U.S. government's official web portal to all federal, state and local government web resources and services.